| time (UTC) | temp F | wind direction | speed MPH | gust MPH | rain 1hr in | rain 24hr in | rain mn in | humidity % | barometer mb |
| 20260506043517 | 76 | 107 | 2.0 | 11.0 | 0.00 | 0.00 | 0.00 | 100 | 1018.0 |
| 20260506043016 | 76 | 130 | 3.0 | 11.0 | 0.00 | 0.00 | 0.00 | 100 | 1017.9 |
| 20260506042516 | 76 | 111 | 3.0 | 8.0 | 0.00 | 0.00 | 0.00 | 100 | 1018.0 |
| 20260506042016 | 76 | 119 | 1.0 | 11.0 | 0.00 | 0.00 | 0.00 | 100 | 1018.2 |
| 20260506041516 | 76 | 121 | 4.0 | 11.0 | 0.00 | 0.00 | 0.00 | 100 | 1018.1 |
| 20260506041014 | 76 | 112 | 2.0 | 8.0 | 0.00 | 0.00 | 0.00 | 100 | 1018.2 |
| 20260506040513 | 76 | 108 | 2.0 | 9.0 | 0.00 | 0.00 | 0.00 | 100 | 1018.3 |
| 20260506040013 | 76 | 122 | 3.0 | 9.0 | 0.00 | 0.00 | 0.00 | 100 | 1018.2 |
| 20260506035518 | 76 | 80 | 3.0 | 9.0 | 0.00 | 0.00 | 0.00 | 100 | 1018.3 |
| 20260506035012 | 76 | 116 | 2.0 | 9.0 | 0.00 | 0.00 | 0.00 | 100 | 1018.3 |
| 20260506034512 | 76 | 105 | 3.0 | 8.0 | 0.00 | 0.00 | 0.00 | 100 | 1018.4 |
| 20260506034011 | 76 | 84 | 3.0 | 8.0 | 0.00 | 0.00 | 0.00 | 100 | 1018.5 |
| 20260506033510 | 76 | 112 | 2.0 | 8.0 | 0.00 | 0.00 | 0.00 | 100 | 1018.4 |
| 20260506033012 | 76 | 104 | 2.0 | 8.0 | 0.00 | 0.00 | 0.00 | 100 | 1018.3 |
| 20260506032510 | 76 | 114 | 3.0 | 7.0 | 0.00 | 0.00 | 0.00 | 100 | 1018.3 |
| 20260506032012 | 76 | 110 | 3.0 | 8.0 | 0.00 | 0.00 | 0.00 | 100 | 1018.3 |
| 20260506031511 | 76 | 108 | 3.0 | 8.0 | 0.00 | 0.00 | 0.00 | 100 | 1018.4 |
| 20260506031012 | 76 | 131 | 2.0 | 8.0 | 0.00 | 0.00 | 0.00 | 100 | 1018.3 |
| 20260506030511 | 76 | 157 | 2.0 | 9.0 | 0.00 | 0.00 | 0.00 | 100 | 1018.3 |
| 20260506030019 | 76 | 96 | 3.0 | 10.0 | 0.00 | 0.00 | 0.00 | 100 | 1018.3 |
| 20260506025509 | 76 | 123 | 4.0 | 10.0 | 0.00 | 0.00 | 0.00 | 100 | 1018.2 |
| 20260506025009 | 76 | 101 | 2.0 | 7.0 | 0.00 | 0.00 | 0.00 | 100 | 1018.2 |
| 20260506024522 | 76 | 115 | 2.0 | 9.0 | 0.00 | 0.00 | 0.00 | 100 | 1018.1 |
| 20260506024009 | 76 | 109 | 4.0 | 10.0 | 0.00 | 0.00 | 0.00 | 100 | 1018.1 |
| 20260506023509 | 76 | 127 | 3.0 | 10.0 | 0.00 | 0.00 | 0.00 | 100 | 1018.0 |
| 20260506023009 | 76 | 92 | 3.0 | 8.0 | 0.00 | 0.00 | 0.00 | 100 | 1018.0 |
| 20260506022508 | 76 | 103 | 2.0 | 8.0 | 0.00 | 0.00 | 0.00 | 100 | 1018.1 |
| 20260506022008 | 76 | 99 | 3.0 | 8.0 | 0.00 | 0.00 | 0.00 | 100 | 1018.1 |
| 20260506021508 | 76 | 112 | 2.0 | 10.0 | 0.00 | 0.00 | 0.00 | 100 | 1018.0 |
| 20260506021009 | 77 | 84 | 3.0 | 10.0 | 0.00 | 0.00 | 0.00 | 100 | 1018.1 |
| 20260506020508 | 76 | 88 | 1.0 | 7.0 | 0.00 | 0.00 | 0.00 | 100 | 1017.9 |
| 20260506020009 | 77 | 149 | 2.0 | 7.0 | 0.00 | 0.00 | 0.00 | 100 | 1017.9 |
| 20260506015507 | 77 | 137 | 2.0 | 8.0 | 0.00 | 0.00 | 0.00 | 100 | 1017.8 |
| 20260506015008 | 77 | 128 | 2.0 | 8.0 | 0.00 | 0.00 | 0.00 | 100 | 1017.8 |
| 20260506014507 | 76 | 96 | 3.0 | 8.0 | 0.00 | 0.00 | 0.00 | 100 | 1017.7 |
| 20260506014007 | 77 | 153 | 2.0 | 10.0 | 0.00 | 0.00 | 0.00 | 100 | 1017.7 |
| 20260506013506 | 77 | 110 | 3.0 | 10.0 | 0.00 | 0.00 | 0.00 | 100 | 1017.6 |
| 20260506013008 | 77 | 103 | 2.0 | 7.0 | 0.00 | 0.00 | 0.00 | 100 | 1017.5 |
| 20260506012506 | 77 | 140 | 2.0 | 7.0 | 0.00 | 0.00 | 0.00 | 100 | 1017.5 |
| 20260506012006 | 77 | 54 | 2.0 | 6.0 | 0.00 | 0.00 | 0.00 | 100 | 1017.4 |
| 20260506011506 | 77 | 130 | 2.0 | 6.0 | 0.00 | 0.00 | 0.00 | 100 | 1017.3 |
| 20260506011007 | 77 | 103 | 2.0 | 7.0 | 0.00 | 0.00 | 0.00 | 100 | 1017.3 |
| 20260506010506 | 77 | 113 | 2.0 | 7.0 | 0.00 | 0.00 | 0.00 | 100 | 1017.2 |
| 20260506010006 | 77 | 102 | 2.0 | 9.0 | 0.00 | 0.00 | 0.00 | 100 | 1017.2 |
| 20260506005608 | 77 | 128 | 2.0 | 9.0 | 0.00 | 0.00 | 0.00 | 100 | 1017.1 |
| 20260506005006 | 77 | 90 | 3.0 | 8.0 | 0.00 | 0.00 | 0.00 | 100 | 1017.1 |
| 20260506004505 | 77 | 93 | 2.0 | 7.0 | 0.00 | 0.00 | 0.00 | 100 | 1017.1 |
| 20260506004005 | 77 | 101 | 2.0 | 7.0 | 0.00 | 0.00 | 0.00 | 100 | 1017.0 |
| 20260506003504 | 77 | 47 | 3.0 | 7.0 | 0.00 | 0.00 | 0.00 | 100 | 1016.9 |
| 20260506003012 | 77 | 109 | 2.0 | 5.0 | 0.00 | 0.00 | 0.00 | 100 | 1016.9 |
| 20260506002504 | 77 | 76 | 1.0 | 5.0 | 0.00 | 0.00 | 0.00 | 100 | 1016.9 |
| 20260506002004 | 77 | 103 | 1.0 | 6.0 | 0.00 | 0.00 | 0.00 | 100 | 1016.9 |
| 20260506001504 | 77 | 148 | 3.0 | 8.0 | 0.00 | 0.00 | 0.00 | 100 | 1016.9 |
| 20260506001004 | 77 | 115 | 2.0 | 8.0 | 0.00 | 0.00 | 0.00 | 100 | 1016.8 |
| 20260506000504 | 77 | 124 | 3.0 | 9.0 | 0.00 | 0.00 | 0.00 | 100 | 1016.8 |
| 20260506000004 | 77 | 35 | 2.0 | 9.0 | 0.00 | 0.00 | 0.00 | 100 | 1016.8 |
| 20260505235503 | 77 | 107 | 2.0 | 9.0 | 0.00 | 0.00 | 0.00 | 100 | 1016.7 |
| 20260505235004 | 77 | 130 | 1.0 | 9.0 | 0.00 | 0.00 | 0.00 | 100 | 1016.7 |
| 20260505234503 | 77 | 36 | 4.0 | 9.0 | 0.00 | 0.00 | 0.00 | 100 | 1016.7 |
| 20260505234005 | 77 | 136 | 2.0 | 9.0 | 0.00 | 0.00 | 0.00 | 100 | 1016.7 |
| 20260505233502 | 77 | 122 | 4.0 | 8.0 | 0.00 | 0.00 | 0.00 | 100 | 1016.8 |
| 20260505233002 | 77 | 107 | 1.0 | 9.0 | 0.00 | 0.00 | 0.00 | 100 | 1016.8 |
| 20260505232502 | 78 | 119 | 2.0 | 9.0 | 0.00 | 0.00 | 0.00 | 100 | 1016.9 |
| 20260505232002 | 78 | 142 | 1.0 | 8.0 | 0.00 | 0.00 | 0.00 | 100 | 1016.8 |
| 20260505231503 | 78 | 360 | 2.0 | 8.0 | 0.00 | 0.00 | 0.00 | 100 | 1016.9 |
| 20260505231002 | 78 | 44 | 1.0 | 8.0 | 0.00 | 0.00 | 0.00 | 100 | 1016.9 |
| 20260505230502 | 78 | 106 | 2.0 | 8.0 | 0.00 | 0.00 | 0.00 | 100 | 1017.0 |
| 20260505230002 | 78 | 118 | 2.0 | 10.0 | 0.00 | 0.00 | 0.00 | 100 | 1017.1 |
| 20260505225504 | 78 | 122 | 2.0 | 10.0 | 0.00 | 0.00 | 0.00 | 100 | 1017.1 |
| 20260505225002 | 78 | 105 | 2.0 | 10.0 | 0.00 | 0.00 | 0.00 | 100 | 1017.2 |
| 20260505224502 | 79 | 15 | 3.0 | 10.0 | 0.00 | 0.00 | 0.00 | 100 | 1017.2 |
| 20260505224001 | 79 | 35 | 1.0 | 9.0 | 0.00 | 0.00 | 0.00 | 100 | 1017.2 |
| 20260505223500 | 79 | 63 | 3.0 | 10.0 | 0.00 | 0.00 | 0.00 | 100 | 1017.1 |
| 20260505223000 | 79 | 32 | 3.0 | 12.0 | 0.00 | 0.00 | 0.00 | 100 | 1017.0 |
| 20260505222602 | 78 | 132 | 2.0 | 12.0 | 0.00 | 0.00 | 0.00 | 100 | 1017.0 |
| 20260505222100 | 78 | 129 | 4.0 | 9.0 | 0.00 | 0.00 | 0.00 | 100 | 1017.0 |
| 20260505221602 | 79 | 109 | 4.0 | 11.0 | 0.00 | 0.00 | 0.00 | 100 | 1017.0 |
| 20260505221100 | 79 | 42 | 3.0 | 11.0 | 0.00 | 0.00 | 0.00 | 100 | 1017.0 |
| 20260505220600 | 80 | 38 | 2.0 | 10.0 | 0.00 | 0.00 | 0.00 | 100 | 1017.1 |
| 20260505215600 | 79 | 101 | 2.0 | 10.0 | 0.00 | 0.00 | 0.00 | 100 | 1016.9 |
| 20260505215100 | 80 | 23 | 3.0 | 10.0 | 0.00 | 0.00 | 0.00 | 100 | 1016.9 |
| 20260505214603 | 79 | 57 | 3.0 | 12.0 | 0.00 | 0.00 | 0.00 | 100 | 1016.9 |
| 20260505214100 | 79 | 146 | 3.0 | 12.0 | 0.00 | 0.00 | 0.00 | 100 | 1016.8 |
| 20260505213558 | 79 | 126 | 3.0 | 8.0 | 0.00 | 0.00 | 0.00 | 100 | 1016.7 |
| 20260505213105 | 80 | 49 | 3.0 | 8.0 | 0.00 | 0.00 | 0.00 | 100 | 1016.7 |
| 20260505212601 | 80 | 46 | 2.0 | 11.0 | 0.00 | 0.00 | 0.00 | 100 | 1016.9 |
| 20260505212059 | 79 | 5 | 3.0 | 9.0 | 0.00 | 0.00 | 0.00 | 100 | 1016.9 |
| 20260505211559 | 79 | 138 | 5.0 | 11.0 | 0.00 | 0.00 | 0.00 | 100 | 1016.7 |
| 20260505211058 | 80 | 97 | 3.0 | 11.0 | 0.00 | 0.00 | 0.00 | 100 | 1016.9 |
| 20260505210558 | 80 | 117 | 2.0 | 12.0 | 0.00 | 0.00 | 0.00 | 100 | 1016.9 |
| 20260505210058 | 80 | 142 | 3.0 | 12.0 | 0.00 | 0.00 | 0.00 | 100 | 1016.9 |
| 20260505205558 | 80 | 130 | 5.0 | 12.0 | 0.00 | 0.00 | 0.00 | 100 | 1016.8 |
| 20260505205058 | 80 | 339 | 3.0 | 11.0 | 0.00 | 0.00 | 0.00 | 100 | 1016.8 |
| 20260505204557 | 80 | 98 | 3.0 | 11.0 | 0.00 | 0.00 | 0.00 | 100 | 1016.8 |
| 20260505204056 | 81 | 148 | 3.0 | 10.0 | 0.00 | 0.00 | 0.00 | 100 | 1016.8 |
| 20260505203556 | 81 | 24 | 2.0 | 11.0 | 0.00 | 0.00 | 0.00 | 100 | 1016.8 |
| 20260505203104 | 80 | 12 | 3.0 | 11.0 | 0.00 | 0.00 | 0.00 | 100 | 1016.9 |
| 20260505202556 | 81 | 149 | 1.0 | 9.0 | 0.00 | 0.00 | 0.00 | 100 | 1016.9 |
| 20260505202058 | 80 | 116 | 4.0 | 11.0 | 0.00 | 0.00 | 0.00 | 100 | 1016.9 |
| 20260505201557 | 81 | 17 | 4.0 | 13.0 | 0.00 | 0.00 | 0.00 | 100 | 1016.8 |
| 20260505201055 | 81 | 43 | 4.0 | 13.0 | 0.00 | 0.00 | 0.00 | 100 | 1016.8 |
| 20260505200555 | 81 | 71 | 4.0 | 11.0 | 0.00 | 0.00 | 0.00 | 100 | 1016.9 |
| 20260505200057 | 80 | 144 | 4.0 | 10.0 | 0.00 | 0.00 | 0.00 | 100 | 1017.0 |
| 20260505195558 | 80 | 102 | 3.0 | 13.0 | 0.00 | 0.00 | 0.00 | 100 | 1017.0 |
| 20260505195055 | 81 | 88 | 5.0 | 13.0 | 0.00 | 0.00 | 0.00 | 100 | 1017.1 |
| 20260505194555 | 81 | 132 | 4.0 | 10.0 | 0.00 | 0.00 | 0.00 | 100 | 1017.1 |
| 20260505194054 | 81 | 110 | 2.0 | 10.0 | 0.00 | 0.00 | 0.00 | 100 | 1017.2 |
| 20260505193555 | 80 | 163 | 3.0 | 10.0 | 0.00 | 0.00 | 0.00 | 100 | 1017.2 |
| 20260505193153 | 80 | 113 | 4.0 | 9.0 | 0.00 | 0.00 | 0.00 | 100 | 1017.3 |
| 20260505192553 | 81 | 67 | 3.0 | 10.0 | 0.00 | 0.00 | 0.00 | 100 | 1017.3 |
| 20260505192054 | 81 | 73 | 3.0 | 10.0 | 0.00 | 0.00 | 0.00 | 100 | 1017.3 |
| 20260505191609 | 81 | 65 | 3.0 | 11.0 | 0.00 | 0.00 | 0.00 | 100 | 1017.2 |
| 20260505191053 | 80 | 96 | 6.0 | 11.0 | 0.00 | 0.00 | 0.00 | 100 | 1017.4 |
| 20260505190552 | 81 | 90 | 3.0 | 9.0 | 0.00 | 0.00 | 0.00 | 100 | 1017.4 |
| 20260505190055 | 80 | 135 | 3.0 | 9.0 | 0.00 | 0.00 | 0.00 | 100 | 1017.5 |
| 20260505185555 | 80 | 121 | 3.0 | 9.0 | 0.00 | 0.00 | 0.00 | 100 | 1017.7 |
| 20260505185052 | 81 | 39 | 2.0 | 10.0 | 0.00 | 0.00 | 0.00 | 100 | 1017.7 |
| 20260505184552 | 81 | 5 | 4.0 | 10.0 | 0.00 | 0.00 | 0.00 | 100 | 1017.7 |
| 20260505184052 | 81 | 123 | 2.0 | 13.0 | 0.00 | 0.00 | 0.00 | 100 | 1017.8 |
| 20260505183550 | 81 | 126 | 3.0 | 13.0 | 0.00 | 0.00 | 0.00 | 100 | 1017.7 |
| 20260505183051 | 80 | 121 | 4.0 | 10.0 | 0.00 | 0.00 | 0.00 | 100 | 1017.7 |
| 20260505182551 | 80 | 134 | 4.0 | 11.0 | 0.00 | 0.00 | 0.00 | 100 | 1017.8 |
| 20260505182056 | 80 | 118 | 3.0 | 11.0 | 0.00 | 0.00 | 0.00 | 100 | 1017.8 |
| 20260505181552 | 81 | 177 | 2.0 | 9.0 | 0.00 | 0.00 | 0.00 | 100 | 1017.8 |
| 20260505181051 | 81 | 94 | 3.0 | 13.0 | 0.00 | 0.00 | 0.00 | 100 | 1017.9 |
| 20260505180550 | 81 | 140 | 6.0 | 13.0 | 0.00 | 0.00 | 0.00 | 100 | 1017.9 |
| 20260505175554 | 80 | 76 | 4.0 | 13.0 | 0.00 | 0.00 | 0.00 | 100 | 1017.9 |
| 20260505175050 | 81 | 102 | 4.0 | 11.0 | 0.00 | 0.00 | 0.00 | 100 | 1018.1 |
| 20260505174555 | 80 | 107 | 4.0 | 11.0 | 0.00 | 0.00 | 0.00 | 100 | 1017.9 |
| 20260505174049 | 80 | 130 | 4.0 | 11.0 | 0.00 | 0.00 | 0.00 | 100 | 1017.9 |
| 20260505173549 | 81 | 146 | 5.0 | 12.0 | 0.00 | 0.00 | 0.00 | 100 | 1018.2 |
| 20260505173049 | 81 | 159 | 4.0 | 12.0 | 0.00 | 0.00 | 0.00 | 100 | 1018.1 |
| 20260505172547 | 81 | 75 | 3.0 | 12.0 | 0.00 | 0.00 | 0.00 | 100 | 1018.2 |
| 20260505172047 | 81 | 89 | 4.0 | 10.0 | 0.00 | 0.00 | 0.00 | 100 | 1018.2 |
| 20260505171550 | 80 | 105 | 3.0 | 9.0 | 0.00 | 0.00 | 0.00 | 100 | 1018.2 |
| 20260505171047 | 80 | 159 | 3.0 | 12.0 | 0.00 | 0.00 | 0.00 | 100 | 1018.3 |
| 20260505170547 | 79 | 90 | 5.0 | 13.0 | 0.00 | 0.00 | 0.00 | 100 | 1018.3 |
| 20260505170048 | 80 | 133 | 4.0 | 11.0 | 0.00 | 0.00 | 0.00 | 100 | 1018.3 |
| 20260505165548 | 80 | 165 | 4.0 | 11.0 | 0.00 | 0.00 | 0.00 | 100 | 1018.1 |
| 20260505165047 | 80 | 121 | 5.0 | 14.0 | 0.00 | 0.00 | 0.00 | 100 | 1018.1 |
| 20260505164549 | 81 | 95 | 4.0 | 14.0 | 0.00 | 0.00 | 0.00 | 100 | 1018.1 |
| 20260505164046 | 81 | 102 | 4.0 | 12.0 | 0.00 | 0.00 | 0.00 | 100 | 1018.3 |
| 20260505163546 | 80 | 135 | 4.0 | 12.0 | 0.00 | 0.00 | 0.00 | 100 | 1018.2 |
| 20260505163046 | 80 | 136 | 6.0 | 11.0 | 0.00 | 0.00 | 0.00 | 100 | 1018.3 |
| 20260505162546 | 80 | 54 | 4.0 | 11.0 | 0.00 | 0.00 | 0.00 | 100 | 1018.2 |
| 20260505162047 | 80 | 135 | 5.0 | 11.0 | 0.00 | 0.00 | 0.00 | 100 | 1018.2 |
| 20260505161551 | 81 | 122 | 3.0 | 9.0 | 0.00 | 0.00 | 0.00 | 100 | 1018.2 |
| 20260505161044 | 80 | 96 | 3.0 | 9.0 | 0.00 | 0.00 | 0.00 | 100 | 1018.2 |
| 20260505160544 | 80 | 169 | 3.0 | 13.0 | 0.00 | 0.00 | 0.00 | 100 | 1018.3 |
| 20260505153041 | 80 | 126 | 3.0 | 12.0 | 0.00 | 0.00 | 0.00 | 100 | 1018.2 |
| 20260505152540 | 80 | 36 | 4.0 | 12.0 | 0.00 | 0.00 | 0.00 | 100 | 1018.2 |
| 20260505152045 | 80 | 57 | 4.0 | 10.0 | 0.00 | 0.00 | 0.00 | 100 | 1018.2 |
| 20260505151539 | 79 | 15 | 3.0 | 11.0 | 0.00 | 0.00 | 0.00 | 100 | 1018.1 |
| 20260505151043 | 79 | 109 | 4.0 | 11.0 | 0.00 | 0.00 | 0.00 | 100 | 1018.1 |
| 20260505150538 | 78 | 119 | 6.0 | 11.0 | 0.00 | 0.00 | 0.00 | 100 | 1018.1 |
| 20260505140532 | 78 | 80 | 2.0 | 10.0 | 0.00 | 0.00 | 0.00 | 100 | 1017.8 |
| 20260505125025 | 75 | 53 | 3.0 | 11.0 | 0.00 | 0.00 | 0.00 | 100 | 1017.5 |
| 20260505124523 | 75 | 119 | 3.0 | 9.0 | 0.00 | 0.00 | 0.00 | 100 | 1017.5 |
| 20260505124022 | 75 | 50 | 2.0 | 8.0 | 0.00 | 0.00 | 0.00 | 100 | 1017.8 |
| 20260505123521 | 75 | 127 | 3.0 | 9.0 | 0.00 | 0.00 | 0.00 | 100 | 1017.8 |
| 20260505123029 | 75 | 118 | 3.0 | 9.0 | 0.00 | 0.00 | 0.00 | 100 | 1017.9 |
| 20260505122521 | 75 | 107 | 2.0 | 8.0 | 0.00 | 0.00 | 0.00 | 100 | 1017.9 |
| 20260505122020 | 75 | 355 | 3.0 | 13.0 | 0.00 | 0.00 | 0.00 | 100 | 1017.8 |
| 20260505121519 | 75 | 24 | 1.0 | 13.0 | 0.00 | 0.00 | 0.00 | 100 | 1017.8 |
| 20260505121019 | 75 | 116 | 4.0 | 11.0 | 0.00 | 0.00 | 0.00 | 100 | 1017.5 |
| 20260505120518 | 75 | 94 | 3.0 | 10.0 | 0.00 | 0.00 | 0.00 | 100 | 1017.5 |
| 20260505120023 | 75 | 80 | 2.0 | 9.0 | 0.00 | 0.00 | 0.00 | 100 | 1017.4 |
| 20260505115515 | 75 | 91 | 2.0 | 11.0 | 0.00 | 0.00 | 0.00 | 100 | 1017.2 |
| 20260505115014 | 74 | 111 | 3.0 | 11.0 | 0.00 | 0.00 | 0.00 | 100 | 1017.2 |
| 20260505114513 | 74 | 110 | 2.0 | 9.0 | 0.00 | 0.00 | 0.00 | 100 | 1017.2 |
| 20260505114018 | 74 | 107 | 3.0 | 9.0 | 0.00 | 0.00 | 0.00 | 100 | 1017.2 |
| 20260505113512 | 74 | 115 | 1.0 | 9.0 | 0.00 | 0.00 | 0.00 | 100 | 1017.1 |
| 20260505113009 | 74 | 58 | 2.0 | 9.0 | 0.00 | 0.00 | 0.00 | 100 | 1017.1 |
| 20260505112509 | 74 | 115 | 2.0 | 9.0 | 0.00 | 0.00 | 0.00 | 100 | 1016.9 |
| 20260505112006 | 74 | 122 | 2.0 | 8.0 | 0.00 | 0.00 | 0.00 | 100 | 1016.9 |
| 20260505111513 | 74 | 98 | 3.0 | 11.0 | 0.00 | 0.00 | 0.00 | 100 | 1016.8 |
| 20260505111004 | 74 | 127 | 2.0 | 7.0 | 0.00 | 0.00 | 0.00 | 100 | 1016.8 |
| 20260505110504 | 74 | 51 | 2.0 | 9.0 | 0.00 | 0.00 | 0.00 | 100 | 1016.9 |
| 20260505102048 | 73 | 143 | 1.0 | 8.0 | 0.00 | 0.00 | 0.00 | 100 | 1016.4 |
| 20260505101602 | 73 | 161 | 3.0 | 8.0 | 0.00 | 0.00 | 0.00 | 100 | 1016.4 |
| 20260505101046 | 73 | 94 | 2.0 | 8.0 | 0.00 | 0.00 | 0.00 | 100 | 1016.3 |
| 20260505100544 | 73 | 75 | 2.0 | 6.0 | 0.00 | 0.00 | 0.00 | 100 | 1016.3 |
| 20260505100059 | 73 | 82 | 2.0 | 7.0 | 0.00 | 0.00 | 0.00 | 100 | 1016.0 |
| 20260505095541 | 73 | 126 | 1.0 | 7.0 | 0.00 | 0.00 | 0.00 | 100 | 1016.2 |
| 20260505095039 | 73 | 113 | 1.0 | 5.0 | 0.00 | 0.00 | 0.00 | 100 | 1016.1 |
| 20260505094539 | 73 | 114 | 1.0 | 7.0 | 0.00 | 0.01 | 0.00 | 100 | 1016.1 |
| 20260505094037 | 73 | 130 | 1.0 | 7.0 | 0.00 | 0.01 | 0.00 | 100 | 1016.1 |
| 20260505093535 | 73 | 114 | 2.0 | 7.0 | 0.00 | 0.01 | 0.00 | 100 | 1015.9 |
| 20260505093034 | 73 | 115 | 3.0 | 7.0 | 0.00 | 0.01 | 0.00 | 100 | 1015.8 |
| 20260505092532 | 73 | 105 | 2.0 | 7.0 | 0.00 | 0.01 | 0.00 | 100 | 1016.0 |
| 20260505092031 | 73 | 108 | 2.0 | 9.0 | 0.00 | 0.01 | 0.00 | 100 | 1016.0 |
| 20260505091530 | 73 | 109 | 3.0 | 9.0 | 0.00 | 0.01 | 0.00 | 100 | 1015.8 |
| 20260505091027 | 73 | 129 | 1.0 | 4.0 | 0.00 | 0.01 | 0.00 | 100 | 1015.9 |
| 20260505090526 | 73 | 125 | 1.0 | 7.0 | 0.00 | 0.01 | 0.00 | 100 | 1016.0 |
| 20260505090025 | 73 | 65 | 2.0 | 6.0 | 0.00 | 0.01 | 0.00 | 100 | 1015.9 |
| 20260505085523 | 73 | 90 | 1.0 | 9.0 | 0.00 | 0.01 | 0.00 | 100 | 1015.7 |
| 20260505085022 | 73 | 105 | 1.0 | 9.0 | 0.00 | 0.01 | 0.00 | 100 | 1015.8 |
| 20260505084521 | 73 | 149 | 1.0 | 5.0 | 0.00 | 0.01 | 0.00 | 100 | 1015.8 |
| 20260505084019 | 73 | 103 | 1.0 | 6.0 | 0.00 | 0.01 | 0.00 | 100 | 1015.8 |
| 20260505083516 | 73 | 119 | 1.0 | 10.0 | 0.00 | 0.01 | 0.00 | 100 | 1015.5 |
| 20260505083015 | 73 | 123 | 2.0 | 10.0 | 0.00 | 0.01 | 0.00 | 100 | 1015.4 |
| 20260505082514 | 73 | 107 | 2.0 | 7.0 | 0.00 | 0.01 | 0.00 | 100 | 1015.6 |
| 20260505082012 | 73 | 126 | 2.0 | 7.0 | 0.00 | 0.01 | 0.00 | 100 | 1015.7 |
| 20260505081512 | 73 | 75 | 1.0 | 7.0 | 0.00 | 0.01 | 0.00 | 100 | 1015.6 |
| 20260505081012 | 73 | 106 | 2.0 | 7.0 | 0.00 | 0.01 | 0.00 | 100 | 1015.7 |
| 20260505080509 | 73 | 139 | 2.0 | 7.0 | 0.00 | 0.01 | 0.00 | 100 | 1015.5 |
| 20260505080006 | 73 | 103 | 2.0 | 8.0 | 0.00 | 0.01 | 0.00 | 100 | 1015.5 |
| 20260505075507 | 73 | 95 | 1.0 | 8.0 | 0.00 | 0.01 | 0.00 | 100 | 1015.5 |
| 20260505075008 | 73 | 121 | 3.0 | 8.0 | 0.00 | 0.01 | 0.00 | 100 | 1015.6 |
| 20260505074503 | 73 | 130 | 3.0 | 9.0 | 0.00 | 0.01 | 0.00 | 100 | 1015.7 |
| 20260505074001 | 73 | 119 | 2.0 | 9.0 | 0.00 | 0.01 | 0.00 | 100 | 1015.9 |
| 20260505073600 | 73 | 119 | 2.0 | 9.0 | 0.00 | 0.01 | 0.00 | 100 | 1016.0 |
| 20260505073104 | 73 | 101 | 2.0 | 9.0 | 0.00 | 0.01 | 0.00 | 100 | 1016.0 |
| 20260505072557 | 73 | 101 | 2.0 | 8.0 | 0.00 | 0.01 | 0.00 | 100 | 1016.0 |
| 20260505072054 | 73 | 86 | 1.0 | 10.0 | 0.00 | 0.01 | 0.00 | 100 | 1016.1 |
| 20260505071556 | 73 | 103 | 3.0 | 11.0 | 0.00 | 0.01 | 0.00 | 100 | 1016.0 |
| 20260505071052 | 73 | 98 | 3.0 | 8.0 | 0.00 | 0.01 | 0.00 | 100 | 1016.1 |
| 20260505070551 | 73 | 111 | 4.0 | 9.0 | 0.00 | 0.01 | 0.00 | 100 | 1016.1 |
| 20260505070053 | 73 | 128 | 3.0 | 9.0 | 0.00 | 0.01 | 0.00 | 100 | 1016.2 |
| 20260505065548 | 73 | 118 | 2.0 | 13.0 | 0.00 | 0.01 | 0.00 | 100 | 1016.1 |
| 20260505065045 | 73 | 133 | 3.0 | 13.0 | 0.00 | 0.01 | 0.00 | 100 | 1016.0 |
| 20260505064545 | 74 | 93 | 3.0 | 10.0 | 0.00 | 0.01 | 0.00 | 100 | 1016.3 |
| 20260505064043 | 73 | 118 | 3.0 | 9.0 | 0.00 | 0.01 | 0.00 | 100 | 1016.3 |
| 20260505063544 | 74 | 106 | 3.0 | 10.0 | 0.00 | 0.01 | 0.00 | 100 | 1016.3 |
| 20260505063047 | 74 | 133 | 4.0 | 10.0 | 0.00 | 0.01 | 0.00 | 100 | 1016.4 |
| 20260505062537 | 73 | 119 | 4.0 | 10.0 | 0.00 | 0.01 | 0.00 | 100 | 1016.5 |
| 20260505062036 | 74 | 90 | 2.0 | 9.0 | 0.00 | 0.01 | 0.00 | 100 | 1016.6 |
| 20260505061539 | 74 | 98 | 4.0 | 9.0 | 0.00 | 0.01 | 0.00 | 100 | 1016.5 |
| 20260505061033 | 74 | 122 | 3.0 | 8.0 | 0.00 | 0.01 | 0.00 | 100 | 1016.5 |
| 20260505060533 | 73 | 98 | 3.0 | 6.0 | 0.00 | 0.01 | 0.00 | 100 | 1016.6 |
| 20260505060032 | 73 | 101 | 2.0 | 7.0 | 0.00 | 0.01 | 0.00 | 100 | 1017.0 |
| 20260505055530 | 74 | 104 | 3.0 | 7.0 | 0.00 | 0.01 | 0.00 | 100 | 1017.0 |
| 20260505055028 | 74 | 71 | 3.0 | 7.0 | 0.00 | 0.01 | 0.00 | 100 | 1017.2 |
| 20260505054526 | 74 | 110 | 1.0 | 9.0 | 0.00 | 0.01 | 0.00 | 100 | 1017.2 |
| 20260505054026 | 74 | 141 | 3.0 | 9.0 | 0.00 | 0.01 | 0.00 | 100 | 1017.2 |
| 20260505053522 | 74 | 145 | 2.0 | 7.0 | 0.00 | 0.01 | 0.00 | 100 | 1017.0 |
| 20260505053033 | 74 | 144 | 2.0 | 10.0 | 0.00 | 0.01 | 0.00 | 100 | 1017.0 |
| 20260505052519 | 74 | 84 | 3.0 | 10.0 | 0.00 | 0.01 | 0.00 | 100 | 1017.0 |
| 20260505052019 | 74 | 96 | 3.0 | 10.0 | 0.00 | 0.01 | 0.00 | 100 | 1017.0 |
| 20260505051534 | 74 | 121 | 5.0 | 10.0 | 0.00 | 0.01 | 0.00 | 100 | 1017.1 |
| 20260505051014 | 74 | 111 | 4.0 | 9.0 | 0.00 | 0.01 | 0.00 | 100 | 1017.2 |
| 20260505050513 | 74 | 103 | 2.0 | 8.0 | 0.00 | 0.01 | 0.00 | 100 | 1017.1 |